Content
SEND FEEDBACK

Daily
Averages
Monthly
Summary
United States of America

HORICON, WISCONSIN


Home > North America > United States > Wisconsin
Elevation: 880 feet     Latitude: 43 27N     Longitude: 088 38W

WEATHER
 
SELECT A DAY
Number of Records: 448,052;   Date Range: 4/23/95 - 8/12/14
 
SHARE

PRINT THIS DATA

[ ← Previous Day ]
WEATHER ALMANAC - JANUARY 31, 2013
[ Next Day → ]
[ °C ]   °F
Weather ElementAverageHighLow
Temperature9.8 °F14.9 °F (12:35 am)1 °F (11:55 pm)
Dewpoint2.4 °F9.5 °F (12:35 am)-5.4 °F (11:35 pm)
Humidity72.2 %86 % (6:35 am)62 % (10:15 am)
Barometer29.83 in30.11 in (11:55 pm)29.59 in (12:35 am)
Wind Speed12.7 mph18.4 mph (2:35 am)
Wind Gust24.2 mph (1:15 am)
Weather ElementAverage
Visibility8.9 mi
Wind DirectionWNW (289.7 °)

Weather ElementTotal
Precipitation---
Heating Degree Days57.1 (Base 65)
Averaged from 68 records on January 31, 2013
WEATHER CONDITIONS BREAKOUT
WIND DIRECTION BREAKOUT
WEATHER BY HOUR - JANUARY 31, 2013
[ °C ]   °F
Local TimeTemperatureDewpointHumidityBarometerVisibilityWind DirectionWind SpeedGust SpeedPrecipitationEventsConditions
12:35 AM14.9 °F9.5 °F79 %29.59 in10.0 miWNW (290°)15.0 mph20.7 mphOvercast
12:55 AM14.9 °F9.3 °F79 %29.60 in7.0 miWest (280°)12.7 mph19.6 mphOvercast
1:15 AM14.7 °F9.1 °F79 %29.61 in7.0 miWest (280°)13.8 mph24.2 mphOvercast
1:35 AM14.7 °F8.4 °F76 %29.62 in7.0 miWest (280°)13.8 mph23.0 mphOvercast
1:55 AM14.5 °F7.7 °F74 %29.62 in10.0 miWNW (290°)15.0 mph20.7 mphOvercast
2:15 AM14.4 °F7.7 °F75 %29.64 in10.0 miWest (280°)16.1 mph21.9 mphOvercast
2:35 AM13.6 °F7.3 °F76 %29.64 in10.0 miWest (280°)18.4 mph24.2 mphOvercast
2:55 AM13.3 °F6.3 °F74 %29.64 in10.0 miWNW (290°)15.0 mph20.7 mphOvercast
3:15 AM13.3 °F6.6 °F75 %29.64 in7.0 miWNW (290°)10.4 mph15.0 mphOvercast
3:35 AM13.5 °F7.3 °F77 %29.64 in10.0 miWNW (290°)9.2 mphOvercast
3:55 AM13.6 °F7.9 °F78 %29.65 in10.0 miWNW (290°)9.2 mphOvercast
4:15 AM13.1 °F8.1 °F80 %29.66 in7.0 miWNW (300°)11.5 mphSnowLight Snow
4:35 AM13.1 °F5.5 °F72 %29.66 in10.0 miWNW (300°)11.5 mph20.7 mphOvercast
4:55 AM12.9 °F5.4 °F72 %29.67 in10.0 miWNW (300°)12.7 mph19.6 mphOvercast
5:15 AM12.4 °F5.9 °F75 %29.67 in10.0 miWNW (300°)12.7 mphOvercast
5:35 AM12.2 °F6.8 °F79 %29.68 in7.0 miWNW (300°)6.9 mphOvercast
6:15 AM12.0 °F7.9 °F83 %29.69 in3.0 miWest (280°)8.1 mphSnowLight Snow
6:35 AM11.8 °F8.4 °F86 %29.69 in4.0 miWest (280°)8.1 mphSnowLight Snow
6:55 AM11.8 °F5.9 °F77 %29.70 in5.0 miWest (280°)12.7 mph21.9 mphHaze
7:15 AM10.8 °F4.5 °F76 %29.71 in10.0 miWest (280°)12.7 mph17.3 mphOvercast
7:35 AM10.0 °F3.2 °F74 %29.72 in10.0 miWest (280°)10.4 mph17.3 mphScattered Clouds
7:55 AM10.0 °F2.7 °F72 %29.74 in7.0 miWest (280°)13.8 mph24.2 mphClear
8:15 AM10.2 °F2.3 °F70 %29.74 in10.0 miWNW (290°)13.8 mph19.6 mphClear
8:35 AM10.4 °F2.3 °F70 %29.75 in10.0 miWNW (290°)17.3 mph20.7 mphClear
8:55 AM10.9 °F1.8 °F67 %29.76 in10.0 miWNW (290°)10.4 mph19.6 mphClear
9:15 AM11.1 °F1.9 °F67 %29.77 in10.0 miWNW (290°)12.7 mph19.6 mphClear
9:35 AM11.1 °F2.1 °F67 %29.77 in10.0 miWNW (290°)13.8 mphClear
9:55 AM11.8 °F1.9 °F65 %29.78 in10.0 miNW (310°)12.7 mph18.4 mphClear
10:15 AM11.7 °F1.0 °F62 %29.79 in10.0 miWNW (300°)11.5 mph23.0 mphClear
10:35 AM11.5 °F1.8 °F65 %29.80 in10.0 miWNW (300°)15.0 mph20.7 mphScattered Clouds
10:55 AM11.8 °F1.6 °F63 %29.80 in10.0 miWNW (300°)12.7 mph24.2 mphMostly Cloudy
11:15 AM11.5 °F1.4 °F64 %29.81 in10.0 miWNW (290°)12.7 mph24.2 mphMostly Cloudy
11:35 AM11.7 °F1.2 °F63 %29.81 in10.0 miWest (280°)16.1 mph20.7 mphOvercast
11:55 AM11.3 °F2.3 °F67 %29.82 in10.0 miWest (280°)13.8 mphOvercast
12:15 PM11.3 °F1.9 °F66 %29.82 in10.0 miWNW (290°)11.5 mphOvercast
12:35 PM11.5 °F2.5 °F67 %29.82 in10.0 miWNW (300°)10.4 mph18.4 mphOvercast
12:55 PM11.5 °F2.3 °F67 %29.83 in10.0 miWest (280°)13.8 mph17.3 mphOvercast
1:15 PM11.8 °F3.2 °F68 %29.83 in10.0 miWNW (290°)13.8 mph18.4 mphOvercast
1:35 PM11.8 °F2.5 °F66 %29.84 in10.0 miWNW (300°)13.8 mph19.6 mphOvercast
1:55 PM11.5 °F2.7 °F68 %29.85 in10.0 miWNW (290°)10.4 mph16.1 mphOvercast
2:15 PM11.1 °F3.0 °F70 %29.85 in5.0 miWest (280°)12.7 mphHaze
2:35 PM10.9 °F3.4 °F72 %29.86 in5.0 miWest (280°)13.8 mph20.7 mphHaze
2:55 PM10.6 °F3.9 °F75 %29.87 in3.0 miWNW (290°)12.7 mph19.6 mphHaze
3:15 PM10.6 °F3.7 °F74 %29.87 in4.0 miWest (280°)12.7 mph18.4 mphHaze
3:35 PM10.8 °F4.3 °F75 %29.88 in5.0 miWNW (290°)11.5 mph17.3 mphHaze
4:15 PM9.5 °F1.4 °F70 %29.90 in10.0 miWNW (290°)11.5 mph23.0 mphOvercast
4:35 PM9.5 °F2.5 °F73 %29.91 in7.0 miWest (280°)12.7 mph16.1 mphOvercast
4:55 PM8.8 °F2.1 °F74 %29.91 in10.0 miWNW (290°)8.1 mph19.6 mphOvercast
5:15 PM8.2 °F1.4 °F74 %29.93 in10.0 miWNW (290°)11.5 mph19.6 mphMostly Cloudy
5:35 PM8.1 °F2.3 °F77 %29.94 in5.0 miWNW (290°)15.0 mph20.7 mphHaze
5:55 PM8.1 °F1.6 °F75 %29.95 in10.0 miWNW (290°)10.4 mph18.4 mphOvercast
6:15 PM7.7 °F1.0 °F74 %29.96 in10.0 miWNW (300°)15.0 mph18.4 mphOvercast
6:35 PM7.2 °F-0.4 °F71 %29.97 in10.0 miWNW (300°)15.0 mph20.7 mphScattered Clouds
6:55 PM6.8 °F-1.3 °F69 %29.98 in10.0 miWNW (290°)15.0 mph24.2 mphMostly Cloudy
7:15 PM6.4 °F-1.3 °F71 %29.99 in10.0 miWNW (300°)12.7 mphMostly Cloudy
7:35 PM5.9 °F-1.3 °F72 %30.00 in10.0 miWNW (290°)13.8 mph23.0 mphOvercast
7:55 PM5.5 °F-1.7 °F72 %30.01 in10.0 miWNW (290°)17.3 mph21.9 mphScattered Clouds
8:15 PM5.0 °F-2.4 °F72 %30.02 in10.0 miWNW (290°)13.8 mph23.0 mphScattered Clouds
8:35 PM4.5 °F-2.6 °F73 %30.03 in10.0 miWNW (290°)13.8 mph18.4 mphClear
8:55 PM4.1 °F-3.5 °F71 %30.04 in10.0 miWNW (290°)15.0 mph21.9 mphClear
9:15 PM3.6 °F-4.0 °F71 %30.05 in10.0 miWNW (300°)12.7 mph18.4 mphClear
9:35 PM3.2 °F-4.5 °F70 %30.06 in10.0 miWNW (300°)13.8 mph19.6 mphClear
9:55 PM2.8 °F-4.5 °F71 %30.06 in10.0 miWNW (290°)15.0 mph19.6 mphClear
10:15 PM2.7 °F-4.7 °F71 %30.07 in10.0 miWNW (290°)12.7 mph19.6 mphClear
10:55 PM2.1 °F-4.9 °F72 %30.09 in10.0 miWNW (290°)11.5 mphClear
11:15 PM1.8 °F-5.3 °F72 %30.09 in10.0 miWNW (290°)11.5 mph16.1 mphClear
11:35 PM1.6 °F-5.4 °F72 %30.10 in10.0 miWNW (290°)9.2 mph18.4 mphClear
11:55 PM1.0 °F-5.4 °F74 %30.11 in10.0 miWest (280°)9.2 mphClear
Hourly data recorded from KRYV, located miles away from Horicon, Wisconsin







STORIES FROM OUR PARTNERS